iso_date,Year,Hour,Min,DOY,POS_DOY,Lat,Lon,BP,Ts,Ta,has_bp,has_ts,has_ta,BuoyID,Buoy_Type,Buoy_Owner,Logistics,Hemisphere
2021-09-20T16:03:04Z,2021,16,3,263.6688,263.6688,61.462,-50.107,1010.7,3.28,-999.0,yes,yes,no,300234068241860,BD2GHI,AOML,UNKNOWN,North
2021-09-20T16:59:57Z,2021,17,0,263.7083,263.7083,61.469,-50.124,1010.5,3.29,-999.0,yes,yes,no,300234068241860,BD2GHI,AOML,UNKNOWN,North
2021-09-20T18:00:00Z,2021,18,0,263.75,263.75,61.478,-50.14,1010.6,3.28,-999.0,yes,yes,no,300234068241860,BD2GHI,AOML,UNKNOWN,North
2021-09-20T19:03:56Z,2021,19,4,263.7944,263.7944,61.485,-50.152,1010.4,3.27,-999.0,yes,yes,no,300234068241860,BD2GHI,AOML,UNKNOWN,North
2021-09-20T20:03:59Z,2021,20,4,263.8361,263.8361,-90.0,-180.0,1010.5,3.24,-999.0,yes,yes,no,300234068241860,BD2GHI,AOML,UNKNOWN,North
2021-09-20T21:04:01Z,2021,21,4,263.8778,263.8778,-90.0,-180.0,1010.7,3.21,-999.0,yes,yes,no,300234068241860,BD2GHI,AOML,UNKNOWN,North
2021-09-20T22:03:56Z,2021,22,4,263.9194,263.9194,-90.0,-180.0,1010.9,3.18,-999.0,yes,yes,no,300234068241860,BD2GHI,AOML,UNKNOWN,North
2021-09-20T23:03:59Z,2021,23,4,263.9611,263.9611,-90.0,-180.0,1011.5,3.15,-999.0,yes,yes,no,300234068241860,BD2GHI,AOML,UNKNOWN,North
2021-09-21T00:04:01Z,2021,0,4,264.0028,264.0028,-90.0,-180.0,1011.3,3.13,-999.0,yes,yes,no,300234068241860,BD2GHI,AOML,UNKNOWN,North
2021-09-21T01:03:56Z,2021,1,4,264.0444,264.0444,-90.0,-180.0,1011.1,3.1,-999.0,yes,yes,no,300234068241860,BD2GHI,AOML,UNKNOWN,North
2021-09-21T02:03:59Z,2021,2,4,264.0861,264.0861,-90.0,-180.0,1011.0,3.08,-999.0,yes,yes,no,300234068241860,BD2GHI,AOML,UNKNOWN,North
2021-09-21T04:03:56Z,2021,4,4,264.1694,264.1694,-90.0,-180.0,1011.7,3.05,-999.0,yes,yes,no,300234068241860,BD2GHI,AOML,UNKNOWN,North
2021-09-21T05:03:59Z,2021,5,4,264.2111,264.2111,61.507,-50.319,1011.5,3.04,-999.0,yes,yes,no,300234068241860,BD2GHI,AOML,UNKNOWN,North
2021-09-21T06:00:00Z,2021,6,0,264.25,264.25,61.513,-50.33,1011.5,3.03,-999.0,yes,yes,no,300234068241860,BD2GHI,AOML,UNKNOWN,North
2021-09-21T07:03:56Z,2021,7,4,264.2944,264.2944,61.524,-50.341,1011.4,3.02,-999.0,yes,yes,no,300234068241860,BD2GHI,AOML,UNKNOWN,North
2021-09-21T07:59:57Z,2021,8,0,264.3333,264.3333,61.534,-50.344,1011.2,3.01,-999.0,yes,yes,no,300234068241860,BD2GHI,AOML,UNKNOWN,North
2021-09-21T09:04:01Z,2021,9,4,264.3778,264.3778,61.543,-50.341,1011.4,2.99,-999.0,yes,yes,no,300234068241860,BD2GHI,AOML,UNKNOWN,North
2021-09-21T10:03:56Z,2021,10,4,264.4194,264.4194,-90.0,-180.0,1011.5,2.99,-999.0,yes,yes,no,300234068241860,BD2GHI,AOML,UNKNOWN,North
2021-09-21T11:03:59Z,2021,11,4,264.4611,264.4611,61.549,-50.342,1011.0,2.98,-999.0,yes,yes,no,300234068241860,BD2GHI,AOML,UNKNOWN,North
2021-09-21T12:00:00Z,2021,12,0,264.5,264.5,61.548,-50.348,1011.9,2.99,-999.0,yes,yes,no,300234068241860,BD2GHI,AOML,UNKNOWN,North
2021-09-21T13:00:02Z,2021,13,0,264.5417,264.5417,61.548,-50.359,1011.6,2.99,-999.0,yes,yes,no,300234068241860,BD2GHI,AOML,UNKNOWN,North
2021-09-21T14:00:57Z,2021,14,1,264.584,264.584,61.547,-50.376,1011.3,3.01,-999.0,yes,yes,no,300234068241860,BD2GHI,AOML,UNKNOWN,North
2021-09-21T15:00:00Z,2021,15,0,264.625,264.625,61.549,-50.395,1010.9,3.05,-999.0,yes,yes,no,300234068241860,BD2GHI,AOML,UNKNOWN,North
2021-09-21T16:00:02Z,2021,16,0,264.6667,264.6667,61.553,-50.41,1011.0,3.07,-999.0,yes,yes,no,300234068241860,BD2GHI,AOML,UNKNOWN,North
2021-09-21T16:59:57Z,2021,17,0,264.7083,264.7083,61.562,-50.424,1010.5,3.09,-999.0,yes,yes,no,300234068241860,BD2GHI,AOML,UNKNOWN,North
2021-09-21T18:00:00Z,2021,18,0,264.75,264.75,61.573,-50.434,1009.9,3.13,-999.0,yes,yes,no,300234068241860,BD2GHI,AOML,UNKNOWN,North
2021-09-21T19:00:02Z,2021,19,0,264.7917,264.7917,61.586,-50.438,1009.7,3.14,-999.0,yes,yes,no,300234068241860,BD2GHI,AOML,UNKNOWN,North
2021-09-21T19:59:57Z,2021,20,0,264.8333,264.8333,61.597,-50.437,1009.2,3.11,-999.0,yes,yes,no,300234068241860,BD2GHI,AOML,UNKNOWN,North
2021-09-21T21:00:00Z,2021,21,0,264.875,264.875,61.607,-50.437,1008.6,3.06,-999.0,yes,yes,no,300234068241860,BD2GHI,AOML,UNKNOWN,North
2021-09-21T22:00:02Z,2021,22,0,264.9167,264.9167,61.616,-50.437,1007.7,3.04,-999.0,yes,yes,no,300234068241860,BD2GHI,AOML,UNKNOWN,North
2021-09-21T22:59:57Z,2021,23,0,264.9583,264.9583,61.621,-50.437,1007.6,3.02,-999.0,yes,yes,no,300234068241860,BD2GHI,AOML,UNKNOWN,North
2021-09-22T00:00:00Z,2021,0,0,265.0,265.0,61.624,-50.437,1007.3,3.0,-999.0,yes,yes,no,300234068241860,BD2GHI,AOML,UNKNOWN,North
2021-09-22T01:00:02Z,2021,1,0,265.0417,265.0417,61.622,-50.441,1006.5,2.99,-999.0,yes,yes,no,300234068241860,BD2GHI,AOML,UNKNOWN,North
2021-09-22T01:59:57Z,2021,2,0,265.0833,265.0833,61.618,-50.451,1005.7,2.98,-999.0,yes,yes,no,300234068241860,BD2GHI,AOML,UNKNOWN,North
2021-09-22T03:00:00Z,2021,3,0,265.125,265.125,61.615,-50.468,1004.3,2.98,-999.0,yes,yes,no,300234068241860,BD2GHI,AOML,UNKNOWN,North
2021-09-22T04:00:02Z,2021,4,0,265.1667,265.1667,61.615,-50.49,1004.6,2.98,-999.0,yes,yes,no,300234068241860,BD2GHI,AOML,UNKNOWN,North
2021-09-22T04:59:57Z,2021,5,0,265.2083,265.2083,61.623,-50.513,1004.4,2.98,-999.0,yes,yes,no,300234068241860,BD2GHI,AOML,UNKNOWN,North
2021-09-22T06:00:00Z,2021,6,0,265.25,265.25,61.634,-50.525,1003.7,2.98,-999.0,yes,yes,no,300234068241860,BD2GHI,AOML,UNKNOWN,North
2021-09-22T07:00:02Z,2021,7,0,265.2917,265.2917,61.647,-50.53,1002.9,2.96,-999.0,yes,yes,no,300234068241860,BD2GHI,AOML,UNKNOWN,North
2021-09-22T07:59:57Z,2021,8,0,265.3333,265.3333,61.659,-50.532,1002.9,2.97,-999.0,yes,yes,no,300234068241860,BD2GHI,AOML,UNKNOWN,North
2021-09-22T09:00:00Z,2021,9,0,265.375,265.375,61.67,-50.533,1002.9,2.96,-999.0,yes,yes,no,300234068241860,BD2GHI,AOML,UNKNOWN,North
2021-09-22T10:00:02Z,2021,10,0,265.4167,265.4167,61.685,-50.522,1002.6,2.96,-999.0,yes,yes,no,300234068241860,BD2GHI,AOML,UNKNOWN,North
2021-09-22T10:59:57Z,2021,11,0,265.4583,265.4583,61.693,-50.508,1001.6,2.97,-999.0,yes,yes,no,300234068241860,BD2GHI,AOML,UNKNOWN,North
2021-09-22T12:00:00Z,2021,12,0,265.5,265.5,61.697,-50.495,1002.1,2.98,-999.0,yes,yes,no,300234068241860,BD2GHI,AOML,UNKNOWN,North
2021-09-22T13:00:02Z,2021,13,0,265.5417,265.5417,61.695,-50.489,1001.3,3.0,-999.0,yes,yes,no,300234068241860,BD2GHI,AOML,UNKNOWN,North
2021-09-22T13:59:57Z,2021,14,0,265.5833,265.5833,61.691,-50.489,1001.0,3.01,-999.0,yes,yes,no,300234068241860,BD2GHI,AOML,UNKNOWN,North
2021-09-22T15:00:00Z,2021,15,0,265.625,265.625,61.685,-50.499,1000.1,3.02,-999.0,yes,yes,no,300234068241860,BD2GHI,AOML,UNKNOWN,North
2021-09-22T16:00:02Z,2021,16,0,265.6667,265.6667,61.682,-50.516,999.5,3.02,-999.0,yes,yes,no,300234068241860,BD2GHI,AOML,UNKNOWN,North
2021-09-22T16:59:57Z,2021,17,0,265.7083,265.7083,61.684,-50.537,1000.2,3.02,-999.0,yes,yes,no,300234068241860,BD2GHI,AOML,UNKNOWN,North
2021-09-22T18:00:00Z,2021,18,0,265.75,265.75,61.691,-50.559,999.4,3.01,-999.0,yes,yes,no,300234068241860,BD2GHI,AOML,UNKNOWN,North
2021-09-22T19:00:02Z,2021,19,0,265.7917,265.7917,61.704,-50.57,999.4,3.0,-999.0,yes,yes,no,300234068241860,BD2GHI,AOML,UNKNOWN,North
2021-09-22T19:59:57Z,2021,20,0,265.8333,265.8333,61.719,-50.571,999.7,3.0,-999.0,yes,yes,no,300234068241860,BD2GHI,AOML,UNKNOWN,North
2021-09-22T21:00:00Z,2021,21,0,265.875,265.875,61.731,-50.562,999.6,2.99,-999.0,yes,yes,no,300234068241860,BD2GHI,AOML,UNKNOWN,North
2021-09-22T22:00:02Z,2021,22,0,265.9167,265.9167,61.74,-50.558,1000.0,2.98,-999.0,yes,yes,no,300234068241860,BD2GHI,AOML,UNKNOWN,North
2021-09-22T22:59:57Z,2021,23,0,265.9583,265.9583,61.747,-50.543,1000.3,2.98,-999.0,yes,yes,no,300234068241860,BD2GHI,AOML,UNKNOWN,North
2021-09-23T00:00:00Z,2021,0,0,266.0,266.0,61.75,-50.526,1001.2,2.97,-999.0,yes,yes,no,300234068241860,BD2GHI,AOML,UNKNOWN,North
2021-09-23T01:00:02Z,2021,1,0,266.0417,266.0417,61.744,-50.516,1002.0,2.98,-999.0,yes,yes,no,300234068241860,BD2GHI,AOML,UNKNOWN,North
2021-09-23T01:59:57Z,2021,2,0,266.0833,266.0833,61.736,-50.518,1003.4,2.97,-999.0,yes,yes,no,300234068241860,BD2GHI,AOML,UNKNOWN,North
2021-09-23T03:02:00Z,2021,3,2,266.1264,266.1264,61.726,-50.533,1004.2,2.96,-999.0,yes,yes,no,300234068241860,BD2GHI,AOML,UNKNOWN,North
2021-09-23T04:00:02Z,2021,4,0,266.1667,266.1667,61.718,-50.555,1004.8,2.96,-999.0,yes,yes,no,300234068241860,BD2GHI,AOML,UNKNOWN,North
2021-09-23T04:59:57Z,2021,5,0,266.2083,266.2083,61.715,-50.582,1005.7,2.95,-999.0,yes,yes,no,300234068241860,BD2GHI,AOML,UNKNOWN,North
2021-09-23T06:00:00Z,2021,6,0,266.25,266.25,61.72,-50.614,1006.1,2.96,-999.0,yes,yes,no,300234068241860,BD2GHI,AOML,UNKNOWN,North
2021-09-23T07:03:56Z,2021,7,4,266.2944,266.2944,61.731,-50.641,1007.0,2.96,-999.0,yes,yes,no,300234068241860,BD2GHI,AOML,UNKNOWN,North
2021-09-23T07:59:57Z,2021,8,0,266.3333,266.3333,61.745,-50.656,1007.8,2.97,-999.0,yes,yes,no,300234068241860,BD2GHI,AOML,UNKNOWN,North
2021-09-23T09:00:00Z,2021,9,0,266.375,266.375,61.76,-50.665,1008.4,2.97,-999.0,yes,yes,no,300234068241860,BD2GHI,AOML,UNKNOWN,North
2021-09-23T10:00:02Z,2021,10,0,266.4167,266.4167,61.774,-50.662,1009.1,2.96,-999.0,yes,yes,no,300234068241860,BD2GHI,AOML,UNKNOWN,North
2021-09-23T10:59:57Z,2021,11,0,266.4583,266.4583,61.782,-50.655,1009.7,2.95,-999.0,yes,yes,no,300234068241860,BD2GHI,AOML,UNKNOWN,North
2021-09-23T12:02:00Z,2021,12,2,266.5014,266.5014,61.788,-50.645,1010.2,2.95,-999.0,yes,yes,no,300234068241860,BD2GHI,AOML,UNKNOWN,North
2021-09-23T13:00:02Z,2021,13,0,266.5417,266.5417,61.788,-50.635,1010.7,2.95,-999.0,yes,yes,no,300234068241860,BD2GHI,AOML,UNKNOWN,North
2021-09-23T13:59:57Z,2021,14,0,266.5833,266.5833,61.783,-50.634,1011.4,2.97,-999.0,yes,yes,no,300234068241860,BD2GHI,AOML,UNKNOWN,North
2021-09-23T15:00:00Z,2021,15,0,266.625,266.625,61.776,-50.64,1011.9,2.98,-999.0,yes,yes,no,300234068241860,BD2GHI,AOML,UNKNOWN,North
2021-09-23T16:00:02Z,2021,16,0,266.6667,266.6667,61.772,-50.656,1012.4,2.99,-999.0,yes,yes,no,300234068241860,BD2GHI,AOML,UNKNOWN,North
2021-09-23T17:03:59Z,2021,17,4,266.7111,266.7111,61.77,-50.673,1012.4,3.0,-999.0,yes,yes,no,300234068241860,BD2GHI,AOML,UNKNOWN,North
2021-09-23T18:00:00Z,2021,18,0,266.75,266.75,61.771,-50.696,1012.9,3.0,-999.0,yes,yes,no,300234068241860,BD2GHI,AOML,UNKNOWN,North
2021-09-23T19:00:02Z,2021,19,0,266.7917,266.7917,61.776,-50.721,1013.1,2.99,-999.0,yes,yes,no,300234068241860,BD2GHI,AOML,UNKNOWN,North
2021-09-23T19:59:57Z,2021,20,0,266.8333,266.8333,61.782,-50.745,1013.6,2.98,-999.0,yes,yes,no,300234068241860,BD2GHI,AOML,UNKNOWN,North
2021-09-23T21:00:00Z,2021,21,0,266.875,266.875,61.792,-50.76,1014.0,2.97,-999.0,yes,yes,no,300234068241860,BD2GHI,AOML,UNKNOWN,North
2021-09-23T22:03:56Z,2021,22,4,266.9194,266.9194,61.803,-50.782,1014.1,2.96,-999.0,yes,yes,no,300234068241860,BD2GHI,AOML,UNKNOWN,North
2021-09-23T22:59:57Z,2021,23,0,266.9583,266.9583,61.812,-50.793,1014.4,2.94,-999.0,yes,yes,no,300234068241860,BD2GHI,AOML,UNKNOWN,North
2021-09-24T00:04:01Z,2021,0,4,267.0028,267.0028,61.824,-50.795,1014.6,2.94,-999.0,yes,yes,no,300234068241860,BD2GHI,AOML,UNKNOWN,North
2021-09-24T01:00:02Z,2021,1,0,267.0417,267.0417,61.827,-50.798,1014.5,2.93,-999.0,yes,yes,no,300234068241860,BD2GHI,AOML,UNKNOWN,North
2021-09-24T01:59:57Z,2021,2,0,267.0833,267.0833,61.831,-50.8,1014.6,2.92,-999.0,yes,yes,no,300234068241860,BD2GHI,AOML,UNKNOWN,North
2021-09-24T03:00:00Z,2021,3,0,267.125,267.125,61.83,-50.801,1014.7,2.92,-999.0,yes,yes,no,300234068241860,BD2GHI,AOML,UNKNOWN,North
2021-09-24T04:03:56Z,2021,4,4,267.1694,267.1694,61.825,-50.806,1014.4,2.9,-999.0,yes,yes,no,300234068241860,BD2GHI,AOML,UNKNOWN,North
2021-09-24T04:59:57Z,2021,5,0,267.2083,267.2083,61.816,-50.811,1014.6,2.91,-999.0,yes,yes,no,300234068241860,BD2GHI,AOML,UNKNOWN,North
2021-09-24T06:04:01Z,2021,6,4,267.2528,267.2528,61.814,-50.834,1014.4,2.92,-999.0,yes,yes,no,300234068241860,BD2GHI,AOML,UNKNOWN,North
2021-09-24T07:03:56Z,2021,7,4,267.2944,267.2944,61.813,-50.857,1014.4,2.92,-999.0,yes,yes,no,300234068241860,BD2GHI,AOML,UNKNOWN,North
2021-09-24T08:03:59Z,2021,8,4,267.3361,267.3361,61.816,-50.887,1014.2,2.93,-999.0,yes,yes,no,300234068241860,BD2GHI,AOML,UNKNOWN,North
2021-09-24T09:00:00Z,2021,9,0,267.375,267.375,61.819,-50.92,1014.3,2.92,-999.0,yes,yes,no,300234068241860,BD2GHI,AOML,UNKNOWN,North
2021-09-24T10:00:02Z,2021,10,0,267.4167,267.4167,61.831,-50.951,1014.3,2.92,-999.0,yes,yes,no,300234068241860,BD2GHI,AOML,UNKNOWN,North
2021-09-24T11:03:59Z,2021,11,4,267.4611,267.4611,61.847,-50.979,1014.4,2.92,-999.0,yes,yes,no,300234068241860,BD2GHI,AOML,UNKNOWN,North
2021-09-24T12:03:01Z,2021,12,3,267.5021,267.5021,61.861,-50.991,1014.4,2.93,-999.0,yes,yes,no,300234068241860,BD2GHI,AOML,UNKNOWN,North
2021-09-24T13:03:56Z,2021,13,4,267.5444,267.5444,61.875,-50.997,1014.8,2.94,-999.0,yes,yes,no,300234068241860,BD2GHI,AOML,UNKNOWN,North
2021-09-24T15:00:00Z,2021,15,0,267.625,267.625,61.882,-50.99,1015.0,2.97,-999.0,yes,yes,no,300234068241860,BD2GHI,AOML,UNKNOWN,North
2021-09-24T16:00:02Z,2021,16,0,267.6667,267.6667,61.878,-50.989,1014.9,3.0,-999.0,yes,yes,no,300234068241860,BD2GHI,AOML,UNKNOWN,North
2021-09-24T17:01:58Z,2021,17,2,267.7097,267.7097,61.872,-50.993,1014.9,3.03,-999.0,yes,yes,no,300234068241860,BD2GHI,AOML,UNKNOWN,North
2021-09-24T18:04:01Z,2021,18,4,267.7528,267.7528,61.864,-51.016,1015.3,3.06,-999.0,yes,yes,no,300234068241860,BD2GHI,AOML,UNKNOWN,North
2021-09-24T19:03:56Z,2021,19,4,267.7944,267.7944,61.863,-51.038,1015.4,3.1,-999.0,yes,yes,no,300234068241860,BD2GHI,AOML,UNKNOWN,North
2021-09-24T20:03:59Z,2021,20,4,267.8361,267.8361,61.863,-51.061,1015.6,3.12,-999.0,yes,yes,no,300234068241860,BD2GHI,AOML,UNKNOWN,North
2021-09-24T21:02:00Z,2021,21,2,267.8764,267.8764,61.868,-51.081,1016.0,3.12,-999.0,yes,yes,no,300234068241860,BD2GHI,AOML,UNKNOWN,North
2021-09-24T22:02:03Z,2021,22,2,267.9181,267.9181,61.876,-51.112,1016.0,3.12,-999.0,yes,yes,no,300234068241860,BD2GHI,AOML,UNKNOWN,North
2021-09-24T22:59:57Z,2021,23,0,267.9583,267.9583,61.885,-51.136,1016.4,3.13,-999.0,yes,yes,no,300234068241860,BD2GHI,AOML,UNKNOWN,North
2021-09-25T00:00:00Z,2021,0,0,268.0,268.0,61.897,-51.158,1016.7,3.13,-999.0,yes,yes,no,300234068241860,BD2GHI,AOML,UNKNOWN,North
2021-09-25T01:00:02Z,2021,1,0,268.0417,268.0417,61.91,-51.167,1017.0,3.13,-999.0,yes,yes,no,300234068241860,BD2GHI,AOML,UNKNOWN,North
2021-09-25T02:03:59Z,2021,2,4,268.0861,268.0861,61.922,-51.168,1017.0,3.13,-999.0,yes,yes,no,300234068241860,BD2GHI,AOML,UNKNOWN,North
2021-09-25T03:04:01Z,2021,3,4,268.1278,268.1278,61.929,-51.164,1017.0,3.12,-999.0,yes,yes,no,300234068241860,BD2GHI,AOML,UNKNOWN,North
2021-09-25T04:03:56Z,2021,4,4,268.1694,268.1694,61.929,-51.159,1017.1,3.12,-999.0,yes,yes,no,300234068241860,BD2GHI,AOML,UNKNOWN,North
2021-09-25T05:03:59Z,2021,5,4,268.2111,268.2111,-90.0,-180.0,1017.1,3.12,-999.0,yes,yes,no,300234068241860,BD2GHI,AOML,UNKNOWN,North
2021-09-25T06:04:01Z,2021,6,4,268.2528,268.2528,-90.0,-180.0,1017.3,3.14,-999.0,yes,yes,no,300234068241860,BD2GHI,AOML,UNKNOWN,North
2021-09-25T07:03:56Z,2021,7,4,268.2944,268.2944,-90.0,-180.0,1017.8,3.17,-999.0,yes,yes,no,300234068241860,BD2GHI,AOML,UNKNOWN,North
2021-09-25T08:00:57Z,2021,8,1,268.334,268.334,61.904,-51.191,1017.6,3.18,-999.0,yes,yes,no,300234068241860,BD2GHI,AOML,UNKNOWN,North
2021-09-25T09:04:01Z,2021,9,4,268.3778,268.3778,-90.0,-180.0,1017.7,3.2,-999.0,yes,yes,no,300234068241860,BD2GHI,AOML,UNKNOWN,North
2021-09-25T10:00:02Z,2021,10,0,268.4167,268.4167,61.904,-51.235,1017.5,3.22,-999.0,yes,yes,no,300234068241860,BD2GHI,AOML,UNKNOWN,North
2021-09-25T12:00:00Z,2021,12,0,268.5,268.5,61.916,-51.274,1017.1,3.22,-999.0,yes,yes,no,300234068241860,BD2GHI,AOML,UNKNOWN,North
2021-09-25T13:00:02Z,2021,13,0,268.5417,268.5417,61.925,-51.289,1016.9,3.24,-999.0,yes,yes,no,300234068241860,BD2GHI,AOML,UNKNOWN,North
2021-09-25T14:02:58Z,2021,14,3,268.5854,268.5854,61.934,-51.292,1016.9,3.24,-999.0,yes,yes,no,300234068241860,BD2GHI,AOML,UNKNOWN,North
2021-09-25T15:04:01Z,2021,15,4,268.6278,268.6278,61.94,-51.282,1016.8,3.26,-999.0,yes,yes,no,300234068241860,BD2GHI,AOML,UNKNOWN,North
2021-09-25T16:00:02Z,2021,16,0,268.6667,268.6667,61.941,-51.272,1016.5,3.27,-999.0,yes,yes,no,300234068241860,BD2GHI,AOML,UNKNOWN,North
2021-09-25T16:59:57Z,2021,17,0,268.7083,268.7083,61.939,-51.262,1016.3,3.28,-999.0,yes,yes,no,300234068241860,BD2GHI,AOML,UNKNOWN,North
2021-09-25T18:04:01Z,2021,18,4,268.7528,268.7528,-90.0,-180.0,1016.3,3.29,-999.0,yes,yes,no,300234068241860,BD2GHI,AOML,UNKNOWN,North
2021-09-25T19:03:56Z,2021,19,4,268.7944,268.7944,-90.0,-180.0,1016.2,3.3,-999.0,yes,yes,no,300234068241860,BD2GHI,AOML,UNKNOWN,North
2021-09-25T20:03:59Z,2021,20,4,268.8361,268.8361,-90.0,-180.0,1016.1,3.31,-999.0,yes,yes,no,300234068241860,BD2GHI,AOML,UNKNOWN,North
2021-09-25T21:04:01Z,2021,21,4,268.8778,268.8778,-90.0,-180.0,1015.9,3.32,-999.0,yes,yes,no,300234068241860,BD2GHI,AOML,UNKNOWN,North
2021-09-25T22:03:56Z,2021,22,4,268.9194,268.9194,-90.0,-180.0,1015.9,3.31,-999.0,yes,yes,no,300234068241860,BD2GHI,AOML,UNKNOWN,North
2021-09-25T22:59:57Z,2021,23,0,268.9583,268.9583,61.913,-51.292,1015.8,3.31,-999.0,yes,yes,no,300234068241860,BD2GHI,AOML,UNKNOWN,North
2021-09-26T00:03:01Z,2021,0,3,269.0021,269.0021,61.92,-51.315,1015.7,3.31,-999.0,yes,yes,no,300234068241860,BD2GHI,AOML,UNKNOWN,North
2021-09-26T01:00:02Z,2021,1,0,269.0417,269.0417,61.929,-51.328,1015.5,3.3,-999.0,yes,yes,no,300234068241860,BD2GHI,AOML,UNKNOWN,North
2021-09-26T02:03:59Z,2021,2,4,269.0861,269.0861,-90.0,-180.0,1015.7,3.28,-999.0,yes,yes,no,300234068241860,BD2GHI,AOML,UNKNOWN,North
2021-09-26T03:04:01Z,2021,3,4,269.1278,269.1278,-90.0,-180.0,1015.6,3.27,-999.0,yes,yes,no,300234068241860,BD2GHI,AOML,UNKNOWN,North
2021-09-26T04:03:56Z,2021,4,4,269.1694,269.1694,61.95,-51.299,1015.5,3.26,-999.0,yes,yes,no,300234068241860,BD2GHI,AOML,UNKNOWN,North
2021-09-26T04:59:57Z,2021,5,0,269.2083,269.2083,61.952,-51.284,1015.6,3.25,-999.0,yes,yes,no,300234068241860,BD2GHI,AOML,UNKNOWN,North
2021-09-26T06:04:01Z,2021,6,4,269.2528,269.2528,61.951,-51.267,1016.0,3.24,-999.0,yes,yes,no,300234068241860,BD2GHI,AOML,UNKNOWN,North
2021-09-26T07:02:03Z,2021,7,2,269.2931,269.2931,61.949,-51.246,1016.1,3.21,-999.0,yes,yes,no,300234068241860,BD2GHI,AOML,UNKNOWN,North
2021-09-26T07:59:57Z,2021,8,0,269.3333,269.3333,61.946,-51.228,1016.2,3.22,-999.0,yes,yes,no,300234068241860,BD2GHI,AOML,UNKNOWN,North
2021-09-26T09:02:00Z,2021,9,2,269.3764,269.3764,61.939,-51.214,1016.0,3.2,-999.0,yes,yes,no,300234068241860,BD2GHI,AOML,UNKNOWN,North
2021-09-26T10:00:02Z,2021,10,0,269.4167,269.4167,61.93,-51.216,1016.2,3.19,-999.0,yes,yes,no,300234068241860,BD2GHI,AOML,UNKNOWN,North
2021-09-26T10:59:57Z,2021,11,0,269.4583,269.4583,61.926,-51.228,1016.3,3.18,-999.0,yes,yes,no,300234068241860,BD2GHI,AOML,UNKNOWN,North
2021-09-26T12:00:00Z,2021,12,0,269.5,269.5,61.926,-51.246,1016.7,3.2,-999.0,yes,yes,no,300234068241860,BD2GHI,AOML,UNKNOWN,North
2021-09-26T13:00:02Z,2021,13,0,269.5417,269.5417,61.933,-51.26,1016.9,3.11,-999.0,yes,yes,no,300234068241860,BD2GHI,AOML,UNKNOWN,North
2021-09-26T13:59:57Z,2021,14,0,269.5833,269.5833,61.944,-51.264,1017.2,3.09,-999.0,yes,yes,no,300234068241860,BD2GHI,AOML,UNKNOWN,North
2021-09-26T15:00:00Z,2021,15,0,269.625,269.625,61.952,-51.26,1017.3,3.13,-999.0,yes,yes,no,300234068241860,BD2GHI,AOML,UNKNOWN,North
2021-09-26T16:00:02Z,2021,16,0,269.6667,269.6667,61.959,-51.248,1017.3,3.22,-999.0,yes,yes,no,300234068241860,BD2GHI,AOML,UNKNOWN,North
2021-09-26T16:59:57Z,2021,17,0,269.7083,269.7083,61.963,-51.222,1017.4,3.23,-999.0,yes,yes,no,300234068241860,BD2GHI,AOML,UNKNOWN,North
2021-09-26T18:00:00Z,2021,18,0,269.75,269.75,61.964,-51.2,1017.6,3.19,-999.0,yes,yes,no,300234068241860,BD2GHI,AOML,UNKNOWN,North
2021-09-26T19:00:02Z,2021,19,0,269.7917,269.7917,61.961,-51.179,1017.8,3.28,-999.0,yes,yes,no,300234068241860,BD2GHI,AOML,UNKNOWN,North
2021-09-26T19:59:57Z,2021,20,0,269.8333,269.8333,61.957,-51.164,1018.0,3.26,-999.0,yes,yes,no,300234068241860,BD2GHI,AOML,UNKNOWN,North
2021-09-26T21:00:00Z,2021,21,0,269.875,269.875,61.952,-51.163,1018.1,3.1,-999.0,yes,yes,no,300234068241860,BD2GHI,AOML,UNKNOWN,North
2021-09-26T22:00:02Z,2021,22,0,269.9167,269.9167,61.948,-51.166,1018.2,3.08,-999.0,yes,yes,no,300234068241860,BD2GHI,AOML,UNKNOWN,North
2021-09-26T22:59:57Z,2021,23,0,269.9583,269.9583,61.946,-51.176,1018.5,3.07,-999.0,yes,yes,no,300234068241860,BD2GHI,AOML,UNKNOWN,North
2021-09-27T00:00:00Z,2021,0,0,270.0,270.0,61.947,-51.188,1018.8,3.01,-999.0,yes,yes,no,300234068241860,BD2GHI,AOML,UNKNOWN,North
2021-09-27T01:00:02Z,2021,1,0,270.0417,270.0417,61.951,-51.204,1018.8,2.98,-999.0,yes,yes,no,300234068241860,BD2GHI,AOML,UNKNOWN,North
2021-09-27T01:59:57Z,2021,2,0,270.0833,270.0833,61.961,-51.215,1018.6,3.0,-999.0,yes,yes,no,300234068241860,BD2GHI,AOML,UNKNOWN,North
2021-09-27T03:01:00Z,2021,3,1,270.1257,270.1257,61.971,-51.223,1018.8,2.98,-999.0,yes,yes,no,300234068241860,BD2GHI,AOML,UNKNOWN,North
2021-09-27T04:00:02Z,2021,4,0,270.1667,270.1667,61.98,-51.22,1018.6,2.97,-999.0,yes,yes,no,300234068241860,BD2GHI,AOML,UNKNOWN,North
2021-09-27T04:59:57Z,2021,5,0,270.2083,270.2083,61.988,-51.208,1018.3,2.94,-999.0,yes,yes,no,300234068241860,BD2GHI,AOML,UNKNOWN,North
2021-09-27T06:00:00Z,2021,6,0,270.25,270.25,61.992,-51.192,1018.0,2.91,-999.0,yes,yes,no,300234068241860,BD2GHI,AOML,UNKNOWN,North
2021-09-27T07:00:02Z,2021,7,0,270.2917,270.2917,61.995,-51.176,1018.0,2.89,-999.0,yes,yes,no,300234068241860,BD2GHI,AOML,UNKNOWN,North
2021-09-27T07:59:57Z,2021,8,0,270.3333,270.3333,61.999,-51.166,1017.9,2.9,-999.0,yes,yes,no,300234068241860,BD2GHI,AOML,UNKNOWN,North
2021-09-27T09:00:00Z,2021,9,0,270.375,270.375,62.0,-51.161,1017.8,2.92,-999.0,yes,yes,no,300234068241860,BD2GHI,AOML,UNKNOWN,North
2021-09-27T10:00:02Z,2021,10,0,270.4167,270.4167,61.997,-51.157,1017.5,2.89,-999.0,yes,yes,no,300234068241860,BD2GHI,AOML,UNKNOWN,North
2021-09-27T10:59:57Z,2021,11,0,270.4583,270.4583,61.996,-51.156,1017.3,2.92,-999.0,yes,yes,no,300234068241860,BD2GHI,AOML,UNKNOWN,North
2021-09-27T12:00:00Z,2021,12,0,270.5,270.5,61.996,-51.166,1017.0,2.91,-999.0,yes,yes,no,300234068241860,BD2GHI,AOML,UNKNOWN,North
2021-09-27T13:00:02Z,2021,13,0,270.5417,270.5417,61.997,-51.186,1016.7,2.93,-999.0,yes,yes,no,300234068241860,BD2GHI,AOML,UNKNOWN,North
2021-09-27T13:59:57Z,2021,14,0,270.5833,270.5833,62.004,-51.212,1016.5,2.96,-999.0,yes,yes,no,300234068241860,BD2GHI,AOML,UNKNOWN,North
2021-09-27T15:00:00Z,2021,15,0,270.625,270.625,62.011,-51.229,1016.2,2.97,-999.0,yes,yes,no,300234068241860,BD2GHI,AOML,UNKNOWN,North
2021-09-27T16:00:02Z,2021,16,0,270.6667,270.6667,62.02,-51.238,1016.0,3.0,-999.0,yes,yes,no,300234068241860,BD2GHI,AOML,UNKNOWN,North
2021-09-27T16:59:57Z,2021,17,0,270.7083,270.7083,62.026,-51.237,1015.7,2.94,-999.0,yes,yes,no,300234068241860,BD2GHI,AOML,UNKNOWN,North
2021-09-27T18:00:00Z,2021,18,0,270.75,270.75,62.03,-51.234,1016.1,2.9,-999.0,yes,yes,no,300234068241860,BD2GHI,AOML,UNKNOWN,North
2021-09-27T19:00:02Z,2021,19,0,270.7917,270.7917,62.035,-51.225,1016.2,2.86,-999.0,yes,yes,no,300234068241860,BD2GHI,AOML,UNKNOWN,North
2021-09-27T19:59:57Z,2021,20,0,270.8333,270.8333,62.04,-51.215,1015.5,2.85,-999.0,yes,yes,no,300234068241860,BD2GHI,AOML,UNKNOWN,North
2021-09-27T21:00:00Z,2021,21,0,270.875,270.875,62.041,-51.21,1015.2,2.83,-999.0,yes,yes,no,300234068241860,BD2GHI,AOML,UNKNOWN,North
2021-09-27T22:00:02Z,2021,22,0,270.9167,270.9167,62.041,-51.212,1015.4,2.82,-999.0,yes,yes,no,300234068241860,BD2GHI,AOML,UNKNOWN,North
2021-09-27T22:59:57Z,2021,23,0,270.9583,270.9583,62.042,-51.217,1015.0,2.85,-999.0,yes,yes,no,300234068241860,BD2GHI,AOML,UNKNOWN,North
2021-09-28T01:00:02Z,2021,1,0,271.0417,271.0417,62.047,-51.238,1014.7,2.75,-999.0,yes,yes,no,300234068241860,BD2GHI,AOML,UNKNOWN,North
2021-09-28T02:00:57Z,2021,2,1,271.084,271.084,62.052,-51.249,1014.4,2.74,-999.0,yes,yes,no,300234068241860,BD2GHI,AOML,UNKNOWN,North
2021-09-28T03:00:00Z,2021,3,0,271.125,271.125,62.057,-51.26,1013.9,2.74,-999.0,yes,yes,no,300234068241860,BD2GHI,AOML,UNKNOWN,North
2021-09-28T04:00:02Z,2021,4,0,271.1667,271.1667,62.064,-51.267,1013.9,2.72,-999.0,yes,yes,no,300234068241860,BD2GHI,AOML,UNKNOWN,North